EW7812 Weather Reports


Display with metric or nautical units.
time (UTC)temp
F
wind
direction
speed
MPH
gust
MPH
rain 1hr
in
rain 24hr
in
rain mn
in
humidity
%
barometer
mb
20210917225213 64 206 11.0 0.0 0.00 0.00 0.00 44 1014.6
20210917224711 64 187 11.0 0.0 0.00 0.00 0.00 43 1014.6
20210917224217 65 217 7.0 0.0 0.00 0.00 0.00 42 1014.6
20210917223713 66 215 6.0 0.0 0.00 0.00 0.00 42 1013.9
20210917223210 65 196 2.0 0.0 0.00 0.00 0.00 42 1014.6
20210917222743 66 155 4.0 0.0 0.00 0.00 0.00 42 1014.2
20210917222214 68 202 12.0 0.0 0.00 0.00 0.00 40 1013.5
20210917221712 67 122 3.0 0.0 0.00 0.00 0.00 41 1014.2
20210917221213 67 167 7.0 0.0 0.00 0.00 0.00 40 1014.2
20210917220711 67 176 2.0 0.0 0.00 0.00 0.00 41 1013.2
20210917220215 66 161 2.0 0.0 0.00 0.00 0.00 42 1013.9
20210917215712 66 158 4.0 0.0 0.00 0.00 0.00 42 1013.5
20210917215219 65 160 4.0 0.0 0.00 0.00 0.00 43 1013.5
20210917214712 64 194 2.0 0.0 0.00 0.00 0.00 43 1014.2
20210917214213 64 188 2.0 0.0 0.00 0.00 0.00 43 1013.5
20210917213711 65 154 10.0 0.0 0.00 0.00 0.00 42 1013.5
20210917213215 66 149 10.0 0.0 0.00 0.00 0.00 42 1013.5
20210917212714 66 115 4.0 0.0 0.00 0.00 0.00 42 1013.5
20210917212212 64 103 6.0 0.0 0.00 0.00 0.00 44 1014.2
20210917211715 64 156 6.0 0.0 0.00 0.00 0.00 44 1013.9
20210917211214 64 161 6.0 0.0 0.00 0.00 0.00 45 1014.2
20210917210714 64 202 4.0 0.0 0.00 0.00 0.00 44 1013.2
20210917210316 63 43 2.0 0.0 0.00 0.00 0.00 45 1013.5
20210917205711 63 184 5.0 0.0 0.00 0.00 0.00 45 1013.5
20210917205213 64 188 13.0 0.0 0.00 0.00 0.00 44 1013.2
20210917204714 64 257 2.0 0.0 0.00 0.00 0.00 45 1013.5
20210917204213 63 197 9.0 0.0 0.00 0.00 0.00 45 1013.9
20210917203712 63 215 7.0 0.0 0.00 0.00 0.00 45 1013.9
20210917203213 63 214 12.0 0.0 0.00 0.00 0.00 45 1013.9
20210917202716 63 194 16.0 0.0 0.00 0.00 0.00 45 1013.9
20210917202244 64 195 14.0 0.0 0.00 0.00 0.00 44 1013.5
20210917201710 66 195 13.0 0.0 0.00 0.00 0.00 42 1012.9
20210917201143 65 35 2.0 0.0 0.00 0.00 0.00 44 1013.5
20210917200643 64 152 4.0 0.0 0.00 0.00 0.00 45 1013.2
20210917200212 64 207 10.0 0.0 0.00 0.00 0.00 44 1013.2
20210917195713 63 210 10.0 0.0 0.00 0.00 0.00 46 1013.2
20210917195157 63 190 12.0 0.0 0.00 0.00 0.00 45 1012.9
20210917194642 62 210 11.0 0.0 0.00 0.00 0.00 46 1013.5
20210917194144 63 200 13.0 0.0 0.00 0.00 0.00 45 1013.2
20210917193643 63 213 11.0 0.0 0.00 0.00 0.00 46 1013.2
20210917193243 62 207 15.0 0.0 0.00 0.00 0.00 46 1013.5
20210917193045 62 211 12.0 0.0 0.00 0.00 0.00 46 1013.5
20210917192211 62 198 14.0 0.0 0.00 0.00 0.00 46 1013.9
20210917191716 62 211 14.0 0.0 0.00 0.00 0.00 46 1013.9
20210917191214 62 190 11.0 0.0 0.00 0.00 0.00 46 1013.9
20210917190641 62 144 12.0 0.0 0.00 0.00 0.00 47 1014.9
20210917190140 61 191 15.0 0.0 0.00 0.00 0.00 47 1014.9
20210917185716 61 188 9.0 0.0 0.00 0.00 0.00 47 1014.9
20210917185211 61 216 11.0 0.0 0.00 0.00 0.00 48 1014.9
20210917184644 60 196 12.0 0.0 0.00 0.00 0.00 49 1014.9
20210917184143 60 200 10.0 0.0 0.00 0.00 0.00 49 1014.9
20210917183642 60 192 11.0 0.0 0.00 0.00 0.00 49 1015.2
20210917183137 60 200 9.0 0.0 0.00 0.00 0.00 49 1015.2
20210917182641 60 187 8.0 0.0 0.00 0.00 0.00 50 1015.6
20210917182212 60 167 7.0 0.0 0.00 0.00 0.00 50 1015.9
20210917181641 60 192 10.0 0.0 0.00 0.00 0.00 50 1015.9
20210917181213 59 168 9.0 0.0 0.00 0.00 0.00 50 1015.9
20210917180637 59 199 9.0 0.0 0.00 0.00 0.00 51 1015.6
20210917180213 58 210 9.0 0.0 0.00 0.00 0.00 51 1016.3
20210917175645 58 186 5.0 0.0 0.00 0.00 0.00 52 1016.3
20210917175139 58 196 10.0 0.0 0.00 0.00 0.00 53 1016.6
20210917174639 57 202 9.0 0.0 0.00 0.00 0.00 53 1016.6
20210917174142 56 184 8.0 0.0 0.00 0.00 0.00 54 1016.9
20210917173642 56 181 11.0 0.0 0.00 0.00 0.00 54 1016.9
20210917173146 56 196 8.0 0.0 0.00 0.00 0.00 54 1017.3
20210917172640 55 222 9.0 0.0 0.00 0.00 0.00 56 1017.3
20210917172137 55 203 4.0 0.0 0.00 0.00 0.00 57 1017.3
20210917171644 54 197 11.0 0.0 0.00 0.00 0.00 58 1017.6
20210917171140 54 200 5.0 0.0 0.00 0.00 0.00 57 1017.9
20210917170638 54 313 1.0 0.0 0.00 0.00 0.00 58 1017.6
20210917170213 53 205 6.0 0.0 0.00 0.00 0.00 59 1017.6
20210917165639 52 209 6.0 0.0 0.00 0.00 0.00 61 1018.3
20210917165143 51 225 4.0 0.0 0.00 0.00 0.00 62 1018.3
20210917164636 51 207 5.0 0.0 0.00 0.00 0.00 63 1018.3
20210917164136 51 212 4.0 0.0 0.00 0.00 0.00 63 1018.3
20210917163643 50 196 4.0 0.0 0.00 0.00 0.00 64 1019.0
20210917163136 50 207 6.0 0.0 0.00 0.00 0.00 65 1019.0
20210917162640 49 201 6.0 0.0 0.00 0.00 0.00 66 1019.0
20210917162139 49 192 6.0 0.0 0.00 0.00 0.00 68 1019.0
20210917161641 48 190 7.0 0.0 0.00 0.00 0.00 68 1019.6
20210917161143 48 203 7.0 0.0 0.00 0.00 0.00 69 1019.6
20210917160636 48 192 6.0 0.0 0.00 0.00 0.00 70 1019.3
20210917160140 47 211 4.0 0.0 0.00 0.00 0.00 71 1019.6
20210917155641 47 203 4.0 0.0 0.00 0.00 0.00 71 1019.6
20210917155139 47 186 6.0 0.0 0.00 0.00 0.00 72 1019.6
20210917154635 46 185 6.0 0.0 0.00 0.00 0.00 72 1019.6
20210917154142 46 168 5.0 0.0 0.00 0.00 0.00 74 1020.0
20210917153639 45 175 3.0 0.0 0.00 0.00 0.00 75 1020.3
20210917153138 45 221 4.0 0.0 0.00 0.00 0.00 75 1020.3
20210917152636 44 211 1.0 0.0 0.00 0.00 0.00 76 1020.3
20210917152213 44 209 3.0 0.0 0.00 0.00 0.00 75 1020.3
20210917151640 44 215 3.0 0.0 0.00 0.00 0.00 76 1020.3
20210917151137 44 202 4.0 0.0 0.00 0.00 0.00 76 1020.3
20210917150651 44 194 5.0 0.0 0.00 0.00 0.00 76 1020.0
20210917150140 44 205 6.0 0.0 0.00 0.00 0.00 76 1020.0
20210917145639 44 215 3.0 0.0 0.00 0.00 0.00 77 1020.0
20210917145140 44 202 5.0 0.0 0.00 0.00 0.00 76 1020.0
20210917144641 44 225 2.0 0.0 0.00 0.00 0.00 76 1020.0
20210917144140 44 210 4.0 0.0 0.00 0.00 0.00 76 1020.0
20210917143636 43 200 3.0 0.0 0.00 0.00 0.00 76 1020.0
20210917143144 43 205 3.0 0.0 0.00 0.00 0.00 76 1020.0
20210917142645 43 221 1.0 0.0 0.00 0.00 0.00 76 1020.0
20210917142143 43 173 1.0 0.0 0.00 0.00 0.00 77 1020.0
20210917141636 43 229 2.0 0.0 0.00 0.00 0.00 77 1020.0
20210917141139 43 218 3.0 0.0 0.00 0.00 0.00 77 1020.0
20210917140639 42 198 3.0 0.0 0.00 0.00 0.00 77 1019.6
20210917140141 42 209 2.0 0.0 0.00 0.00 0.00 78 1019.6
20210917135640 42 210 3.0 0.0 0.00 0.00 0.00 78 1019.6
20210917135143 42 92 0.0 0.0 0.00 0.00 0.00 78 1019.6
20210917134637 42 215 2.0 0.0 0.00 0.00 0.00 78 1019.6
20210917134144 42 76 0.0 0.0 0.00 0.00 0.00 79 1019.3
20210917133640 42 9 2.0 0.0 0.00 0.00 0.00 78 1019.6
20210917133142 42 134 0.0 0.0 0.00 0.00 0.00 78 1019.6
20210917132640 41 136 0.0 0.0 0.00 0.00 0.00 79 1019.3
20210917132143 41 130 1.0 0.0 0.00 0.00 0.00 79 1019.3
20210917131642 41 132 1.0 0.0 0.00 0.00 0.00 78 1019.3
20210917131213 41 128 0.0 0.0 0.00 0.00 0.00 78 1019.3
20210917130636 41 150 3.0 0.0 0.00 0.00 0.00 78 1017.3
20210917130118 42 140 0.0 0.0 0.00 0.00 0.00 78 1016.6
20210917125638 42 159 2.0 0.0 0.00 0.00 0.00 78 1016.6
20210917125115 42 121 3.0 0.0 0.00 0.00 0.00 77 1016.6
20210917124639 42 136 3.0 0.0 0.00 0.00 0.00 77 1016.6
20210917124115 42 138 3.0 0.0 0.00 0.00 0.00 77 1016.3
20210917123612 42 138 1.0 0.0 0.00 0.00 0.00 77 1016.3
20210917123117 42 138 3.0 0.0 0.00 0.00 0.00 76 1016.3
20210917122616 43 145 5.0 0.0 0.00 0.00 0.00 76 1015.9
20210917122115 43 92 3.0 0.0 0.00 0.00 0.00 76 1015.9
20210917121628 43 124 2.0 0.0 0.00 0.00 0.00 75 1015.9
20210917121144 43 134 1.0 0.0 0.00 0.00 0.00 75 1015.9
20210917120618 44 78 1.0 0.0 0.00 0.00 0.00 75 1013.9
20210917120111 44 131 3.0 0.0 0.00 0.00 0.00 75 1013.9
20210917115618 44 137 2.0 0.0 0.00 0.00 0.00 74 1013.5
20210917115115 44 132 4.0 0.0 0.00 0.00 0.00 74 1013.5
20210917114614 45 137 7.0 0.0 0.00 0.00 0.00 74 1013.5
20210917114114 45 136 2.0 0.0 0.00 0.00 0.00 74 1013.5
20210917113611 45 173 3.0 0.0 0.00 0.00 0.00 73 1013.2
20210917113114 46 186 4.0 0.0 0.00 0.00 0.00 73 1012.9
20210917112611 46 146 5.0 0.0 0.00 0.00 0.00 72 1012.9
20210917112115 47 146 6.0 0.0 0.00 0.00 0.00 72 1012.5
20210917111614 47 155 5.0 0.0 0.00 0.00 0.00 72 1012.5
20210917111114 48 166 4.0 0.0 0.00 0.00 0.00 72 1012.2
20210917110614 48 130 2.0 0.0 0.00 0.00 0.00 71 1011.2
20210917110113 48 132 3.0 0.0 0.00 0.00 0.00 71 1011.2
20210917105612 48 133 4.0 0.0 0.00 0.00 0.00 70 1011.2
20210917105213 49 138 2.0 0.0 0.00 0.00 0.00 70 1011.2
20210917104614 49 161 2.0 0.0 0.00 0.00 0.00 70 1011.2
20210917104110 49 165 5.0 0.0 0.00 0.00 0.00 69 1011.2
20210917103617 49 163 3.0 0.0 0.00 0.00 0.00 68 1010.5
20210917103116 50 105 1.0 0.0 0.00 0.00 0.00 68 1010.5
20210917102715 50 78 0.0 0.0 0.00 0.00 0.00 68 1010.2
20210917102213 50 77 1.0 0.0 0.00 0.00 0.00 68 1010.2
20210917101643 50 125 1.0 0.0 0.00 0.00 0.00 67 1010.2
20210917101138 50 132 3.0 0.0 0.00 0.00 0.00 67 1010.2
20210917100642 51 160 5.0 0.0 0.00 0.00 0.00 66 1010.5
20210917100141 51 161 5.0 0.0 0.00 0.00 0.00 65 1010.5
20210917095638 52 147 7.0 0.0 0.00 0.00 0.00 65 1010.5
20210917095137 52 118 1.0 0.0 0.00 0.00 0.00 64 1010.5
20210917094641 52 128 3.0 0.0 0.00 0.00 0.00 63 1010.2
20210917094136 53 88 2.0 0.0 0.00 0.00 0.00 63 1009.5
20210917093713 53 74 1.0 0.0 0.00 0.00 0.00 62 1009.5
20210917093137 53 88 1.0 0.0 0.00 0.00 0.00 61 1009.5
20210917092636 53 136 0.0 0.0 0.00 0.00 0.00 60 1009.5
20210917092140 54 91 0.0 0.0 0.00 0.00 0.00 60 1009.1
20210917091639 54 71 1.0 0.0 0.00 0.00 0.00 59 1009.1
20210917091215 54 64 1.0 0.0 0.00 0.00 0.00 58 1009.1
20210917090639 54 178 0.0 0.0 0.00 0.00 0.00 56 1009.1
20210917090135 54 145 5.0 0.0 0.00 0.00 0.00 56 1008.5
20210917085644 55 131 1.0 0.0 0.00 0.00 0.00 55 1008.5
20210917085137 54 167 2.0 0.0 0.00 0.00 0.00 53 1008.5
20210917084641 54 237 3.0 0.0 0.00 0.00 0.00 49 1008.8
20210917084139 55 67 2.0 0.0 0.00 0.00 0.00 48 1008.5
20210917083643 55 18 1.0 0.0 0.00 0.00 0.00 46 1008.1
20210917083144 56 25 3.0 0.0 0.00 0.00 0.00 43 1007.5
20210917082715 58 163 2.0 0.0 0.00 0.00 0.00 47 1007.1
20210917082213 58 171 4.0 0.0 0.00 0.00 0.00 48 1007.1
20210917081640 58 164 5.0 0.0 0.00 0.00 0.00 47 1006.8
20210917081142 57 87 1.0 0.0 0.00 0.00 0.00 47 1006.8
20210917080636 57 202 2.0 0.0 0.00 0.00 0.00 46 1006.8
20210917080145 56 186 2.0 0.0 0.00 0.00 0.00 47 1007.5
20210917075613 54 275 5.0 0.0 0.00 0.00 0.00 48 1007.8
20210917075145 53 58 3.0 0.0 0.00 0.00 0.00 37 1007.8
20210917074612 52 59 0.0 0.0 0.00 0.00 0.00 37 1007.5
20210917074117 53 360 1.0 0.0 0.00 0.00 0.00 37 1007.5
20210917073613 53 360 2.0 0.0 0.00 0.00 0.00 36 1007.5
20210917073114 53 5 1.0 0.0 0.00 0.00 0.00 38 1007.1
20210917072613 53 355 1.0 0.0 0.00 0.00 0.00 37 1007.1
20210917072113 54 26 2.0 0.0 0.00 0.00 0.00 37 1006.1
20210917071617 54 90 0.0 0.0 0.00 0.00 0.00 35 1006.1
20210917071114 54 236 1.0 0.0 0.00 0.00 0.00 37 1005.8
20210917070617 55 199 3.0 0.0 0.00 0.00 0.00 36 1005.8
20210917070116 55 146 0.0 0.0 0.00 0.00 0.00 35 1005.4
20210917065619 55 129 1.0 0.0 0.00 0.00 0.00 33 1005.4
20210917065111 54 360 2.0 0.0 0.00 0.00 0.00 34 1005.1
20210917064610 54 360 4.0 0.0 0.00 0.00 0.00 36 1004.7
20210917064113 53 15 6.0 0.0 0.00 0.00 0.00 36 1005.1
20210917063611 53 5 3.0 0.0 0.00 0.00 0.00 37 1005.1
20210917063115 54 25 1.0 0.0 0.00 0.00 0.00 37 1004.4
20210917062617 54 23 0.0 0.0 0.00 0.00 0.00 35 1004.4
20210917062114 54 178 0.0 0.0 0.00 0.00 0.00 37 1004.4
20210917061615 54 161 1.0 0.0 0.00 0.00 0.00 36 1004.1
20210917061112 54 171 0.0 0.0 0.00 0.00 0.00 37 1004.1
20210917060614 55 171 1.0 0.0 0.00 0.00 0.00 37 1004.4
20210917060116 55 164 2.0 0.0 0.00 0.00 0.00 36 1004.4
20210917055643 55 150 2.0 0.0 0.00 0.00 0.00 36 1004.4
20210917055112 55 5 2.0 0.0 0.00 0.00 0.00 36 1004.1
20210917054613 55 277 0.0 0.0 0.00 0.00 0.00 35 1004.1
20210917054114 55 333 5.0 0.0 0.00 0.00 0.00 36 1004.1
20210917053610 55 5 1.0 0.0 0.00 0.00 0.00 36 1004.1
20210917053114 55 33 0.0 0.0 0.00 0.00 0.00 36 1004.1
20210917052612 56 360 1.0 0.0 0.00 0.00 0.00 35 1003.7
20210917052112 56 43 0.0 0.0 0.00 0.00 0.00 35 1003.4
20210917051617 56 55 1.0 0.0 0.00 0.00 0.00 35 1003.4
20210917051112 56 36 1.0 0.0 0.00 0.00 0.00 35 1003.4
20210917050617 57 5 1.0 0.0 0.00 0.00 0.00 34 1003.4
20210917050144 57 5 0.0 0.0 0.00 0.00 0.00 34 1003.0
20210917045609 57 360 1.0 0.0 0.00 0.00 0.00 34 1003.0
20210917045213 57 360 0.0 0.0 0.00 0.00 0.00 34 1002.7
20210917044613 58 5 1.0 0.0 0.00 0.00 0.00 34 1002.4
20210917044111 58 5 0.0 0.0 0.00 0.00 0.00 34 1002.4
20210917043614 58 5 1.0 0.0 0.00 0.00 0.00 33 1002.4
20210917043112 58 15 0.0 0.0 0.00 0.00 0.00 33 1002.4
20210917042612 58 15 0.0 0.0 0.00 0.00 0.00 33 1002.0
20210917042114 58 28 3.0 0.0 0.00 0.00 0.00 33 1002.0
20210917041613 59 18 3.0 0.0 0.00 0.00 0.00 33 1002.0
20210917041115 58 325 4.0 0.0 0.00 0.00 0.00 32 1003.0
20210917040618 58 14 0.0 0.0 0.00 0.00 0.00 32 1002.4
20210917040115 59 36 1.0 0.0 0.00 0.00 0.00 32 1002.4
20210917035714 59 351 2.0 0.0 0.00 0.00 0.00 32 1002.7
20210917035111 59 340 1.0 0.0 0.00 0.00 0.00 31 1002.7
20210917034613 59 19 0.0 0.0 0.00 0.00 0.00 32 1002.4
20210917034112 59 350 3.0 0.0 0.00 0.00 0.00 32 1002.4
20210917033611 59 355 4.0 0.0 0.00 0.00 0.00 31 1002.4
20210917033113 59 355 2.0 0.0 0.00 0.00 0.00 31 1002.0
20210917032615 60 5 2.0 0.0 0.00 0.00 0.00 30 1002.0
20210917032112 60 30 1.0 0.0 0.00 0.00 0.00 30 1002.0
20210917031613 60 5 2.0 0.0 0.00 0.00 0.00 30 1001.7
20210917031116 61 346 0.0 0.0 0.00 0.00 0.00 29 1004.1
20210917030646 62 355 3.0 0.0 0.00 0.00 0.00 28 1004.4
20210917030116 63 347 2.0 0.0 0.00 0.00 0.00 27 1003.7
20210917025631 63 32 1.0 0.0 0.00 0.00 0.00 27 1003.7
20210917025110 63 40 1.0 0.0 0.00 0.00 0.00 27 1003.7
20210917024617 63 360 2.0 0.0 0.00 0.00 0.00 27 1003.4
20210917024213 64 64 1.0 0.0 0.00 0.00 0.00 26 1003.4
20210917023612 64 29 1.0 0.0 0.00 0.00 0.00 27 1003.4
20210917023111 64 360 3.0 0.0 0.00 0.00 0.00 26 1003.4
20210917022619 64 36 2.0 0.0 0.00 0.00 0.00 26 1003.0
20210917022115 64 355 5.0 0.0 0.00 0.00 0.00 26 1003.0
20210917021612 65 360 3.0 0.0 0.00 0.00 0.00 26 1002.4
20210917021112 65 12 3.0 0.0 0.00 0.00 0.00 26 1005.1
20210917020614 66 355 2.0 0.0 0.00 0.00 0.00 25 1004.7
20210917020113 66 72 2.0 0.0 0.00 0.00 0.00 25 1004.7
20210917015614 67 38 4.0 0.0 0.00 0.00 0.00 24 1004.4
20210917015112 68 346 1.0 0.0 0.00 0.00 0.00 24 1004.1
20210917014615 68 11 3.0 0.0 0.00 0.00 0.00 23 1003.4
20210917014115 69 18 2.0 0.0 0.00 0.00 0.00 23 1003.4
20210917013611 70 41 2.0 0.0 0.00 0.00 0.00 22 1003.4
20210917013115 70 5 2.0 0.0 0.00 0.00 0.00 22 1003.4
20210917012543 71 17 1.0 0.0 0.00 0.00 0.00 21 1002.7
20210917012114 71 61 2.0 0.0 0.00 0.00 0.00 21 1002.4
20210917011612 72 10 3.0 0.0 0.00 0.00 0.00 21 1002.0
20210917011219 74 15 3.0 0.0 0.00 0.00 0.00 20 1002.0
20210917010543 75 275 0.0 0.0 0.00 0.00 0.00 21 1001.7
20210917010042 75 186 1.0 0.0 0.00 0.00 0.00 19 1001.7
20210917005616 76 15 3.0 0.0 0.00 0.00 0.00 19 1001.4
20210917005111 77 229 1.0 0.0 0.00 0.00 0.00 18 1001.4
20210917004616 77 214 1.0 0.0 0.00 0.00 0.00 17 1001.0
20210917004120 78 34 3.0 0.0 0.00 0.00 0.00 20 1001.0
20210917003615 78 306 1.0 0.0 0.00 0.00 0.00 17 1001.0
20210917003142 78 30 1.0 0.0 0.00 0.00 0.00 20 1000.3
20210917002613 79 30 0.0 0.0 0.00 0.00 0.00 19 1000.3
20210917002113 79 320 1.0 0.0 0.00 0.00 0.00 19 1000.3
20210917001540 80 264 4.0 0.0 0.00 0.00 0.00 18 1000.3
20210917001112 80 207 4.0 0.0 0.00 0.00 0.00 18 1000.3
20210917000542 81 182 2.0 0.0 0.00 0.00 0.00 18 999.7
20210917000115 81 250 2.0 0.0 0.00 0.00 0.00 18 999.7
20210916235610 81 175 4.0 0.0 0.00 0.00 0.00 18 999.7
20210916235115 81 202 3.0 0.0 0.00 0.00 0.00 18 999.7
20210916234617 81 146 5.0 0.0 0.00 0.00 0.00 18 999.3
20210916234040 81 176 4.0 0.0 0.00 0.00 0.00 18 999.3
20210916233541 81 183 6.0 0.0 0.00 0.00 0.00 18 999.3
20210916233042 81 164 4.0 0.0 0.00 0.00 0.00 18 999.0
20210916232542 81 147 11.0 0.0 0.00 0.00 0.00 18 999.0
20210916232046 82 155 9.0 0.0 0.00 0.00 0.00 18 999.0
20210916231543 81 110 5.0 0.0 0.00 0.00 0.00 18 999.0
20210916231038 82 91 7.0 0.0 0.00 0.00 0.00 17 999.0
20210916230542 82 168 6.0 0.0 0.00 0.00 0.00 18 999.3
20210916230039 82 59 4.0 0.0 0.00 0.00 0.00 18 999.0
20210916225541 83 348 3.0 0.0 0.00 0.00 0.00 18 999.0